Location: Callao
(39.8979°N, 113.7141°W)
Time: 17:09:03
(UTC+00:00)

AO-91 - Pass Details

Date: 20 May 2021
Orbit: 453 x 808 km, 97.7° (Epoch: 19 June)

Event Time Altitude Azimuth Distance (km) Brightness Sun altitude
Rises 06:55:44 0° 14° (NNE) 2,872 ? -29.5°
Reaches altitude 10° 06:57:49 10° 16° (NNE) 2,018 ? -29.5°
Enters shadow 07:00:45 42° 26° (NNE) 947 ? -29.6°
